Time,TemperatureF,DewpointF,PressureIn,WindDirection,WindDirectionDegrees,WindSpeedMPH,WindSpeedGustMPH,Humidity,HourlyPrecipIn,Conditions,Clouds,dailyrainin,SoftwareType,DateUTC
2013-06-25 00:00:00,76.0,63.4,29.99,WNW,292,0.0,3.0,65,0.00,BKN,BKN,0.00,WeatherDisplay:10.31,2013-06-25 04:00:00,
2013-06-25 00:10:00,75.6,63.4,29.99,WNW,292,0.0,3.0,66,0.00,BKN,BKN,0.00,WeatherDisplay:10.31,2013-06-25 04:10:00,
2013-06-25 00:20:00,74.6,63.3,29.98,WNW,292,0.0,1.0,68,0.00,BKN,BKN,0.00,WeatherDisplay:10.31,2013-06-25 04:20:00,
2013-06-25 00:30:00,73.8,63.4,29.98,WNW,292,0.0,0.0,70,0.00,BKN,BKN,0.00,WeatherDisplay:10.31,2013-06-25 04:30:00,
2013-06-25 00:40:00,74.1,63.7,29.98,WNW,292,0.0,0.0,70,0.00,BKN,BKN,0.00,WeatherDisplay:10.31,2013-06-25 04:40:00,
2013-06-25 00:50:00,73.9,63.9,29.97,WNW,292,0.0,0.0,71,0.00,BKN,BKN,0.00,WeatherDisplay:10.31,2013-06-25 04:50:00,
2013-06-25 01:00:00,73.7,63.7,29.97,WNW,292,0.0,0.0,71,0.00,BKN,BKN,0.00,WeatherDisplay:10.31,2013-06-25 05:00:00,
2013-06-25 01:10:00,74.3,63.9,29.97,WNW,292,1.0,2.0,70,0.00,BKN,BKN,0.00,WeatherDisplay:10.31,2013-06-25 05:10:00,
2013-06-25 01:20:00,75.3,64.4,29.97,WNW,292,1.0,3.0,69,0.00,BKN,BKN,0.00,WeatherDisplay:10.31,2013-06-25 05:20:00,
2013-06-25 01:30:00,75.2,64.3,29.96,WNW,292,0.0,2.0,69,0.00,BKN,BKN,0.00,WeatherDisplay:10.31,2013-06-25 05:30:00,
2013-06-25 01:40:00,74.8,64.8,29.96,WNW,292,1.0,3.0,71,0.00,BKN,BKN,0.00,WeatherDisplay:10.31,2013-06-25 05:40:00,
2013-06-25 01:50:00,75.2,64.7,29.96,WNW,292,1.0,3.0,70,0.00,BKN,BKN,0.00,WeatherDisplay:10.31,2013-06-25 05:50:00,
2013-06-25 02:00:00,75.5,65.4,29.96,WNW,292,2.0,3.0,71,0.00,BKN,BKN,0.00,WeatherDisplay:10.31,2013-06-25 06:00:00,
2013-06-25 02:10:00,76.0,65.5,29.96,WNW,292,1.0,3.0,70,0.00,BKN,BKN,0.00,WeatherDisplay:10.31,2013-06-25 06:10:00,
2013-06-25 02:20:00,76.0,65.9,29.96,WNW,292,1.0,3.0,71,0.00,BKN,BKN,0.00,WeatherDisplay:10.31,2013-06-25 06:20:00,
2013-06-25 02:30:00,76.0,65.9,29.96,WNW,292,2.0,3.0,71,0.00,BKN,BKN,0.00,WeatherDisplay:10.31,2013-06-25 06:30:00,
2013-06-25 02:40:00,76.0,66.7,29.95,West,278,3.0,3.0,73,0.00,BKN,BKN,0.00,WeatherDisplay:10.31,2013-06-25 06:40:00,
2013-06-25 02:50:00,76.0,66.7,29.96,WSW,245,2.0,3.0,73,0.00,BKN,BKN,0.00,WeatherDisplay:10.31,2013-06-25 06:50:00,
2013-06-25 03:00:00,76.0,66.7,29.96,WSW,245,1.0,6.0,73,0.00,BKN,BKN,0.00,WeatherDisplay:10.31,2013-06-25 07:00:00,
2013-06-25 03:10:00,75.6,66.3,29.95,WSW,247,1.0,3.0,73,0.00,BKN,BKN,0.00,WeatherDisplay:10.31,2013-06-25 07:10:00,
2013-06-25 03:20:00,74.8,66.4,29.95,South,191,2.0,6.0,75,0.00,BKN,BKN,0.00,WeatherDisplay:10.31,2013-06-25 07:20:00,
2013-06-25 03:30:00,73.9,65.9,29.95,SSW,197,1.0,5.0,76,0.00,BKN,BKN,0.00,WeatherDisplay:10.31,2013-06-25 07:30:00,
2013-06-25 03:40:00,73.2,65.6,29.95,SSW,198,2.0,5.0,77,0.00,BKN,BKN,0.00,WeatherDisplay:10.31,2013-06-25 07:40:00,
2013-06-25 03:50:00,72.9,65.6,29.95,SW,220,2.0,5.0,78,0.00,BKN,BKN,0.00,WeatherDisplay:10.31,2013-06-25 07:50:00,
2013-06-25 04:00:00,72.3,65.4,29.95,SW,222,1.0,5.0,79,0.00,BKN,BKN,0.00,WeatherDisplay:10.31,2013-06-25 08:00:00,
2013-06-25 04:10:00,72.0,65.4,29.94,SW,221,3.0,5.0,80,0.00,BKN,BKN,0.00,WeatherDisplay:10.31,2013-06-25 08:10:00,
2013-06-25 04:20:00,71.7,65.6,29.95,SSW,198,1.0,3.0,81,0.00,BKN,BKN,0.00,WeatherDisplay:10.31,2013-06-25 08:20:00,
2013-06-25 04:30:00,71.4,65.3,29.95,SW,225,0.0,3.0,81,0.00,BKN,BKN,0.00,WeatherDisplay:10.31,2013-06-25 08:30:00,
2013-06-25 04:40:00,71.1,65.3,29.95,SW,231,1.0,5.0,82,0.00,BKN,BKN,0.00,WeatherDisplay:10.31,2013-06-25 08:40:00,
2013-06-25 04:50:00,71.3,65.5,29.94,WSW,237,2.0,6.0,82,0.00,BKN,BKN,0.00,WeatherDisplay:10.31,2013-06-25 08:50:00,
2013-06-25 05:00:00,71.6,65.5,29.94,WSW,247,0.0,6.0,81,0.00,BKN,BKN,0.00,WeatherDisplay:10.31,2013-06-25 09:00:00,
2013-06-25 05:10:00,71.3,65.2,29.94,WSW,245,1.0,3.0,81,0.00,SCT,SCT,0.00,WeatherDisplay:10.31,2013-06-25 09:10:00,
2013-06-25 05:20:00,70.7,65.3,29.94,SW,225,0.0,3.0,83,0.00,SCT,SCT,0.00,WeatherDisplay:10.31,2013-06-25 09:20:00,
2013-06-25 05:30:00,70.1,65.1,29.95,SW,225,1.0,1.0,84,0.00,SCT,SCT,0.00,WeatherDisplay:10.31,2013-06-25 09:30:00,
2013-06-25 05:40:00,70.6,65.5,29.95,SW,235,2.0,6.0,84,0.00,SCT,SCT,0.00,WeatherDisplay:10.31,2013-06-25 09:40:00,
2013-06-25 05:50:00,71.3,65.5,29.95,WSW,252,3.0,7.0,82,0.00,SCT,SCT,0.00,WeatherDisplay:10.31,2013-06-25 09:50:00,
2013-06-25 06:00:00,71.5,66.1,29.95,WSW,245,3.0,7.0,83,0.00,SCT,SCT,0.00,WeatherDisplay:10.31,2013-06-25 10:00:00,
2013-06-25 06:10:00,71.5,66.1,29.96,WSW,244,2.0,8.0,83,0.00,SCT,SCT,0.00,WeatherDisplay:10.31,2013-06-25 10:10:00,
2013-06-25 06:20:00,71.6,66.5,29.95,WSW,252,2.0,7.0,84,0.00,SCT,SCT,0.00,WeatherDisplay:10.31,2013-06-25 10:20:00,
2013-06-25 06:30:00,71.7,66.3,29.95,WSW,242,3.0,7.0,83,0.00,SCT,SCT,0.00,WeatherDisplay:10.31,2013-06-25 10:30:00,
2013-06-25 06:40:00,72.0,66.6,29.95,WSW,241,5.0,8.0,83,0.00,SCT,SCT,0.00,WeatherDisplay:10.31,2013-06-25 10:40:00,
2013-06-25 06:50:00,72.4,66.9,29.95,WSW,255,5.0,8.0,83,0.00,SCT,SCT,0.00,WeatherDisplay:10.31,2013-06-25 10:50:00,
2013-06-25 07:00:00,72.6,66.8,29.95,WSW,245,6.0,9.0,82,0.00,SCT,SCT,0.00,WeatherDisplay:10.31,2013-06-25 11:00:00,
2013-06-25 07:10:00,72.8,67.0,29.95,WSW,247,3.0,9.0,82,0.00,FEW,FEW,0.00,WeatherDisplay:10.31,2013-06-25 11:10:00,
2013-06-25 07:20:00,73.1,67.3,29.95,WSW,248,3.0,9.0,82,0.00,FEW,FEW,0.00,WeatherDisplay:10.31,2013-06-25 11:20:00,
2013-06-25 07:30:00,73.4,67.2,29.95,WSW,240,7.0,10.0,81,0.00,FEW,FEW,0.00,WeatherDisplay:10.31,2013-06-25 11:30:00,
2013-06-25 07:40:00,73.9,67.3,29.95,WSW,247,3.0,10.0,80,0.00,FEW,FEW,0.00,WeatherDisplay:10.31,2013-06-25 11:40:00,
2013-06-25 07:50:00,74.3,67.4,29.94,WSW,247,6.0,10.0,79,0.00,FEW,FEW,0.00,WeatherDisplay:10.31,2013-06-25 11:50:00,
2013-06-25 08:00:00,74.6,67.7,29.94,WSW,250,5.0,10.0,79,0.00,FEW,FEW,0.00,WeatherDisplay:10.31,2013-06-25 12:00:00,
2013-06-25 08:10:00,74.9,67.9,29.94,West,263,6.0,9.0,79,0.00,FEW,FEW,0.00,WeatherDisplay:10.31,2013-06-25 12:10:00,
2013-06-25 08:20:00,75.5,68.5,29.94,WSW,256,2.0,9.0,79,0.00,FEW,FEW,0.00,WeatherDisplay:10.31,2013-06-25 12:20:00,
2013-06-25 08:30:00,75.8,68.4,29.94,WSW,257,5.0,8.0,78,0.00,FEW,FEW,0.00,WeatherDisplay:10.31,2013-06-25 12:30:00,
2013-06-25 08:40:00,76.4,68.3,29.94,West,263,5.0,9.0,76,0.00,FEW,FEW,0.00,WeatherDisplay:10.31,2013-06-25 12:40:00,
2013-06-25 08:50:00,76.7,68.5,29.94,WSW,246,2.0,9.0,76,0.00,FEW,FEW,0.00,WeatherDisplay:10.31,2013-06-25 12:50:00,
2013-06-25 09:00:00,77.7,68.7,29.94,WSW,250,6.0,9.0,74,0.00,FEW,FEW,0.00,WeatherDisplay:10.31,2013-06-25 13:00:00,
2013-06-25 09:10:00,78.0,69.0,29.94,WSW,254,5.0,9.0,74,0.00,FEW,FEW,0.00,WeatherDisplay:10.31,2013-06-25 13:10:00,
2013-06-25 09:20:00,78.4,69.0,29.94,WSW,244,5.0,8.0,73,0.00,FEW,FEW,0.00,WeatherDisplay:10.31,2013-06-25 13:20:00,
2013-06-25 09:30:00,79.0,69.2,29.94,WSW,245,6.0,8.0,72,0.00,FEW,FEW,0.00,WeatherDisplay:10.31,2013-06-25 13:30:00,
2013-06-25 09:40:00,79.5,69.6,29.94,SW,235,6.0,9.0,72,0.00,FEW,FEW,0.00,WeatherDisplay:10.31,2013-06-25 13:40:00,
2013-06-25 09:50:00,80.3,69.6,29.94,WSW,252,7.0,9.0,70,0.00,FEW,FEW,0.00,WeatherDisplay:10.31,2013-06-25 13:50:00,
2013-06-25 10:00:00,80.5,69.4,29.93,WSW,244,5.0,9.0,69,0.00,FEW,FEW,0.00,WeatherDisplay:10.31,2013-06-25 14:00:00,
2013-06-25 10:10:00,81.6,69.6,29.93,WSW,254,6.0,9.0,67,0.00,FEW,FEW,0.00,WeatherDisplay:10.31,2013-06-25 14:10:00,
2013-06-25 10:20:00,82.5,70.0,29.93,WSW,256,3.0,10.0,66,0.00,FEW,FEW,0.00,WeatherDisplay:10.31,2013-06-25 14:20:00,
2013-06-25 10:30:00,83.5,70.5,29.93,West,266,6.0,12.0,65,0.00,FEW,FEW,0.00,WeatherDisplay:10.31,2013-06-25 14:30:00,
2013-06-25 10:40:00,84.1,71.1,29.93,WSW,248,3.0,8.0,65,0.00,FEW,FEW,0.00,WeatherDisplay:10.31,2013-06-25 14:40:00,
2013-06-25 10:50:00,83.8,70.3,29.94,WSW,256,6.0,9.0,64,0.00,FEW,FEW,0.00,WeatherDisplay:10.31,2013-06-25 14:50:00,
2013-06-25 11:00:00,84.7,70.2,29.93,WSW,257,2.0,8.0,62,0.00,FEW,FEW,0.00,WeatherDisplay:10.31,2013-06-25 15:00:00,
2013-06-25 11:10:00,85.0,70.5,29.93,WSW,245,6.0,7.0,62,0.00,SCT,SCT,0.00,WeatherDisplay:10.31,2013-06-25 15:10:00,
2013-06-25 11:20:00,86.1,71.1,29.93,SW,223,6.0,10.0,61,0.00,SCT,SCT,0.00,WeatherDisplay:10.31,2013-06-25 15:20:00,
2013-06-25 11:30:00,86.3,71.7,29.93,WSW,241,5.0,8.0,62,0.00,SCT,SCT,0.00,WeatherDisplay:10.31,2013-06-25 15:30:00,
2013-06-25 11:40:00,87.0,70.9,29.93,West,260,3.0,10.0,59,0.00,SCT,SCT,0.00,WeatherDisplay:10.31,2013-06-25 15:40:00,
2013-06-25 11:50:00,87.2,71.1,29.93,WSW,244,5.0,10.0,59,0.00,SCT,SCT,0.00,WeatherDisplay:10.31,2013-06-25 15:50:00,
2013-06-25 12:00:00,87.4,70.8,29.93,WSW,253,7.0,12.0,58,0.00,SCT,SCT,0.00,WeatherDisplay:10.31,2013-06-25 16:00:00,
2013-06-25 12:10:00,88.3,72.1,29.93,WSW,257,5.0,9.0,59,0.00,BKN,BKN,0.00,WeatherDisplay:10.31,2013-06-25 16:10:00,
2013-06-25 12:20:00,88.6,72.0,29.92,West,262,2.0,10.0,58,0.00,BKN,BKN,0.00,WeatherDisplay:10.31,2013-06-25 16:20:00,
2013-06-25 12:30:00,89.2,70.9,29.92,WSW,249,5.0,8.0,55,0.00,BKN,BKN,0.00,WeatherDisplay:10.31,2013-06-25 16:30:00,
2013-06-25 12:40:00,89.9,70.5,29.91,WSW,244,5.0,8.0,53,0.00,BKN,BKN,0.00,WeatherDisplay:10.31,2013-06-25 16:40:00,
2013-06-25 12:50:00,89.8,71.5,29.91,SW,236,3.0,10.0,55,0.00,BKN,BKN,0.00,WeatherDisplay:10.31,2013-06-25 16:50:00,
2013-06-25 13:00:00,89.0,71.8,29.91,SW,215,5.0,12.0,57,0.00,BKN,BKN,0.00,WeatherDisplay:10.31,2013-06-25 17:00:00,
2013-06-25 13:10:00,89.6,71.8,29.90,SW,223,5.0,10.0,56,0.00,BKN,BKN,0.00,WeatherDisplay:10.31,2013-06-25 17:10:00,
2013-06-25 13:20:00,89.6,71.3,29.90,SW,233,5.0,10.0,55,0.00,BKN,BKN,0.00,WeatherDisplay:10.31,2013-06-25 17:20:00,
2013-06-25 13:30:00,89.5,71.2,29.89,SW,223,5.0,13.0,55,0.00,BKN,BKN,0.00,WeatherDisplay:10.31,2013-06-25 17:30:00,
2013-06-25 13:40:00,91.0,72.1,29.89,SSW,210,7.0,10.0,54,0.00,BKN,BKN,0.00,WeatherDisplay:10.31,2013-06-25 17:40:00,
2013-06-25 13:50:00,90.4,72.1,29.89,SSW,206,5.0,12.0,55,0.00,BKN,BKN,0.00,WeatherDisplay:10.31,2013-06-25 17:50:00,
2013-06-25 14:00:00,90.6,73.8,29.88,SSW,199,8.0,16.0,58,0.00,BKN,BKN,0.00,WeatherDisplay:10.31,2013-06-25 18:00:00,
2013-06-25 14:10:00,89.1,73.9,29.88,SSW,199,6.0,12.0,61,0.00,BKN,BKN,0.00,WeatherDisplay:10.31,2013-06-25 18:10:00,
2013-06-25 14:20:00,88.2,73.5,29.88,South,184,5.0,12.0,62,0.00,BKN,BKN,0.00,WeatherDisplay:10.31,2013-06-25 18:20:00,
2013-06-25 14:30:00,89.4,74.2,29.87,South,186,7.0,12.0,61,0.00,BKN,BKN,0.00,WeatherDisplay:10.31,2013-06-25 18:30:00,
2013-06-25 14:40:00,90.1,74.3,29.87,South,190,2.0,12.0,60,0.00,BKN,BKN,0.00,WeatherDisplay:10.31,2013-06-25 18:40:00,
2013-06-25 14:50:00,89.3,73.1,29.86,South,190,3.0,12.0,59,0.00,BKN,BKN,0.00,WeatherDisplay:10.31,2013-06-25 18:50:00,
2013-06-25 15:00:00,88.7,73.5,29.86,South,189,6.0,12.0,61,0.00,BKN,BKN,0.00,WeatherDisplay:10.31,2013-06-25 19:00:00,
2013-06-25 15:10:00,88.8,73.1,29.86,South,176,6.0,12.0,60,0.00,BKN,BKN,0.00,WeatherDisplay:10.31,2013-06-25 19:10:00,
2013-06-25 15:20:00,89.6,73.4,29.85,South,179,7.0,12.0,59,0.00,BKN,BKN,0.00,WeatherDisplay:10.31,2013-06-25 19:20:00,
2013-06-25 15:30:00,89.3,73.1,29.85,South,176,5.0,12.0,59,0.00,BKN,BKN,0.00,WeatherDisplay:10.31,2013-06-25 19:30:00,
2013-06-25 15:40:00,89.8,73.0,29.85,SSW,195,7.0,8.0,58,0.00,BKN,BKN,0.00,WeatherDisplay:10.31,2013-06-25 19:40:00,
2013-06-25 15:50:00,90.0,71.7,29.84,SW,219,6.0,12.0,55,0.00,BKN,BKN,0.00,WeatherDisplay:10.31,2013-06-25 19:50:00,
2013-06-25 16:00:00,89.9,71.6,29.84,SSW,213,6.0,12.0,55,0.00,BKN,BKN,0.00,WeatherDisplay:10.31,2013-06-25 20:00:00,
2013-06-25 16:10:00,89.7,72.5,29.83,South,191,5.0,10.0,57,0.00,BKN,BKN,0.00,WeatherDisplay:10.31,2013-06-25 20:10:00,
2013-06-25 16:20:00,88.9,71.7,29.83,SSW,212,3.0,12.0,57,0.00,BKN,BKN,0.00,WeatherDisplay:10.31,2013-06-25 20:20:00,
2013-06-25 16:30:00,90.4,71.5,29.83,SW,214,3.0,10.0,54,0.00,BKN,BKN,0.00,WeatherDisplay:10.31,2013-06-25 20:30:00,
2013-06-25 16:40:00,91.3,70.6,29.83,SW,236,9.0,14.0,51,0.00,BKN,BKN,0.00,WeatherDisplay:10.31,2013-06-25 20:40:00,
2013-06-25 16:50:00,92.2,70.3,29.83,WSW,241,6.0,14.0,49,0.00,BKN,BKN,0.00,WeatherDisplay:10.31,2013-06-25 20:50:00,
2013-06-25 17:00:00,90.7,68.9,29.83,WSW,243,6.0,18.0,49,0.00,BKN,BKN,0.00,WeatherDisplay:10.31,2013-06-25 21:00:00,
2013-06-25 17:10:00,89.6,69.1,29.82,WSW,242,3.0,15.0,51,0.00,BKN,BKN,0.00,WeatherDisplay:10.31,2013-06-25 21:10:00,
2013-06-25 17:20:00,89.2,68.7,29.82,WSW,247,9.0,20.0,51,0.00,BKN,BKN,0.00,WeatherDisplay:10.31,2013-06-25 21:20:00,
2013-06-25 17:30:00,86.8,70.2,29.82,WSW,257,12.0,25.0,58,0.00,BKN,BKN,0.00,WeatherDisplay:10.31,2013-06-25 21:30:00,
2013-06-25 17:40:00,83.0,68.6,29.82,WSW,254,7.0,21.0,62,0.00,BKN,BKN,0.00,WeatherDisplay:10.31,2013-06-25 21:40:00,
2013-06-25 17:50:00,82.5,68.2,29.81,WSW,255,8.0,20.0,62,0.00,BKN,BKN,0.00,WeatherDisplay:10.31,2013-06-25 21:50:00,
2013-06-25 18:00:00,82.1,69.2,29.81,WSW,247,8.0,15.0,65,0.00,BKN,BKN,0.00,WeatherDisplay:10.31,2013-06-25 22:00:00,
2013-06-25 18:10:00,81.6,69.5,29.81,WSW,255,6.0,14.0,67,0.00,BKN,BKN,0.00,WeatherDisplay:10.31,2013-06-25 22:10:00,
2013-06-25 18:20:00,81.4,69.8,29.81,West,260,3.0,14.0,68,0.00,BKN,BKN,0.00,WeatherDisplay:10.31,2013-06-25 22:20:00,
2013-06-25 18:30:00,81.4,70.2,29.81,West,261,3.0,7.0,69,0.00,BKN,BKN,0.00,WeatherDisplay:10.31,2013-06-25 22:30:00,
2013-06-25 18:40:00,82.3,70.2,29.80,West,266,3.0,6.0,67,0.00,BKN,BKN,0.00,WeatherDisplay:10.31,2013-06-25 22:40:00,
2013-06-25 18:50:00,83.7,70.2,29.81,West,267,2.0,6.0,64,0.00,BKN,BKN,0.00,WeatherDisplay:10.31,2013-06-25 22:50:00,
2013-06-25 19:00:00,84.3,70.4,29.81,West,261,3.0,7.0,63,0.00,BKN,BKN,0.00,WeatherDisplay:10.31,2013-06-25 23:00:00,
2013-06-25 19:10:00,85.0,70.5,29.81,West,259,5.0,10.0,62,0.00,BKN,BKN,0.00,WeatherDisplay:10.31,2013-06-25 23:10:00,
2013-06-25 19:20:00,83.9,70.4,29.81,West,265,9.0,14.0,64,0.00,BKN,BKN,0.00,WeatherDisplay:10.31,2013-06-25 23:20:00,
2013-06-25 19:30:00,83.1,70.5,29.80,WSW,258,5.0,12.0,66,0.00,BKN,BKN,0.00,WeatherDisplay:10.31,2013-06-25 23:30:00,
2013-06-25 19:40:00,82.6,70.9,29.80,WSW,257,6.0,16.0,68,0.00,BKN,BKN,0.00,WeatherDisplay:10.31,2013-06-25 23:40:00,
2013-06-25 19:50:00,82.2,71.5,29.80,WSW,244,5.0,12.0,70,0.00,BKN,BKN,0.00,WeatherDisplay:10.31,2013-06-25 23:50:00,
2013-06-25 20:00:00,81.9,71.6,29.80,WSW,250,7.0,14.0,71,0.00,BKN,BKN,0.00,WeatherDisplay:10.31,2013-06-26 00:00:00,
2013-06-25 20:10:00,82.0,71.7,29.80,WSW,253,6.0,10.0,71,0.00,CLR,CLR,0.00,WeatherDisplay:10.31,2013-06-26 00:10:00,
2013-06-25 20:20:00,82.6,71.4,29.80,West,261,7.0,12.0,69,0.00,CLR,CLR,0.00,WeatherDisplay:10.31,2013-06-26 00:20:00,
2013-06-25 20:30:00,82.6,71.0,29.81,WSW,254,5.0,10.0,68,0.00,CLR,CLR,0.00,WeatherDisplay:10.31,2013-06-26 00:30:00,
2013-06-25 20:40:00,82.7,69.8,29.81,West,263,3.0,10.0,65,0.00,CLR,CLR,0.00,WeatherDisplay:10.31,2013-06-26 00:40:00,
2013-06-25 20:50:00,83.9,68.5,29.80,West,272,7.0,15.0,60,0.00,CLR,CLR,0.00,WeatherDisplay:10.31,2013-06-26 00:50:00,
2013-06-25 21:00:00,84.5,68.1,29.81,West,275,10.0,16.0,58,0.00,CLR,CLR,0.00,WeatherDisplay:10.31,2013-06-26 01:00:00,
2013-06-25 21:10:00,84.3,68.4,29.81,West,270,5.0,13.0,59,0.00,BKN,BKN,0.00,WeatherDisplay:10.31,2013-06-26 01:10:00,
2013-06-25 21:20:00,83.7,68.8,29.82,West,261,6.0,12.0,61,0.00,BKN,BKN,0.00,WeatherDisplay:10.31,2013-06-26 01:20:00,
2013-06-25 21:30:00,83.3,68.4,29.82,WSW,258,7.0,12.0,61,0.00,BKN,BKN,0.00,WeatherDisplay:10.31,2013-06-26 01:30:00,
2013-06-25 21:40:00,83.2,68.3,29.82,WSW,255,6.0,13.0,61,0.00,BKN,BKN,0.00,WeatherDisplay:10.31,2013-06-26 01:40:00,
2013-06-25 21:50:00,82.8,68.5,29.82,West,259,5.0,12.0,62,0.00,BKN,BKN,0.00,WeatherDisplay:10.31,2013-06-26 01:50:00,
2013-06-25 22:00:00,82.0,68.6,29.82,WSW,252,5.0,14.0,64,0.00,BKN,BKN,0.00,WeatherDisplay:10.31,2013-06-26 02:00:00,
2013-06-25 22:10:00,81.8,68.4,29.82,WSW,249,3.0,9.0,64,0.00,BKN,BKN,0.00,WeatherDisplay:10.31,2013-06-26 02:10:00,
2013-06-25 22:20:00,81.4,69.0,29.82,WSW,245,6.0,9.0,66,0.00,BKN,BKN,0.00,WeatherDisplay:10.31,2013-06-26 02:20:00,
2013-06-25 22:30:00,81.1,68.7,29.83,WSW,249,5.0,9.0,66,0.00,BKN,BKN,0.00,WeatherDisplay:10.31,2013-06-26 02:30:00,
2013-06-25 22:40:00,80.8,68.9,29.83,WSW,248,5.0,9.0,67,0.00,BKN,BKN,0.00,WeatherDisplay:10.31,2013-06-26 02:40:00,
2013-06-25 22:50:00,80.6,69.1,29.83,WSW,255,2.0,10.0,68,0.00,BKN,BKN,0.00,WeatherDisplay:10.31,2013-06-26 02:50:00,
2013-06-25 23:00:00,80.2,68.7,29.82,WSW,249,5.0,12.0,68,0.00,BKN,BKN,0.00,WeatherDisplay:10.31,2013-06-26 03:00:00,
2013-06-25 23:10:00,79.9,68.8,29.83,WSW,250,5.0,8.0,69,0.00,BKN,BKN,0.00,WeatherDisplay:10.31,2013-06-26 03:10:00,
2013-06-25 23:20:00,79.5,68.9,29.82,WSW,249,5.0,7.0,70,0.00,BKN,BKN,0.00,WeatherDisplay:10.31,2013-06-26 03:20:00,
2013-06-25 23:30:00,79.1,69.3,29.83,WSW,247,5.0,7.0,72,0.00,BKN,BKN,0.00,WeatherDisplay:10.31,2013-06-26 03:30:00,
2013-06-25 23:40:00,79.1,69.7,29.82,WSW,239,7.0,12.0,73,0.00,BKN,BKN,0.00,WeatherDisplay:10.31,2013-06-26 03:40:00,
2013-06-25 23:50:00,78.6,70.4,29.81,WSW,255,5.0,10.0,76,0.00,BKN,BKN,0.00,WeatherDisplay:10.31,2013-06-26 03:50:00,